カタログに戻る

DELTA 1 DEB

YO

運用中VLEO
NORAD 228·DEBRIS·🇺🇸 United States

打ち上げ Feb 8, 1962 から Cape Canaveral Space Force Station

Loading…

次のパス (今後24時間)

TLE

最新Source: Space-Track

元期: Sep 14, 2026, 05:53 UTC

1 00228U 62002C   26257.24563762  .00039973  00000-0  50395-3 0  9995
2 00228  48.4283 201.4941 0002507 186.6719 173.4196 15.59100914456973

AllMySatでDELTA 1 DEBをリアルタイム追跡

Download on the App Store